sat.trackr.live / text

‹ back to catalog

JILIN-1 GAOFEN 3F

NORAD 46458 · 2020-065E

PAYLOAD ACTIVE UNKNOWN

§ Identity

Operator
Country
PRC
Launch date
2020-09-15
Launch site
SEAL
Launch vehicle
Mass (kg)
RCS (m²)

External: N2YO · Heavens-Above · Gunter

§ Orbital elements

Epoch: 2026-09-13T02:50:12.249312Z

Period
91.64 min
Inclination
97.2051°
Eccentricity
0.0010690
Mean motion
15.71326086 rev/d
Perigee alt
347.9 km
Apogee alt
362.3 km
Semi-major
6,733.2 km
B*
5.8459e-4
RAAN
308.2458°
Arg perigee
170.3094°
Mean anomaly
189.8377°
Rev number
33,346

§ Raw data

JILIN-1 GAOFEN 3F1 46458U 20065E   26256.11819733  .00074753  00000+0  58459-3 0  99932 46458  97.2051 308.2458 0010690 170.3094 189.8377 15.71326086333464

JSON: /api/v1/satellites/46458 · /tle

For live sub-satellite position, see the globe view (requires WebGL).

§ Visibility from observer

Set your observer location to see the next 7 days of passes ≥ 10°. The values pass through the URL so the page stays shareable.

No JS? Fill the form by hand. The geolocation button needs JavaScript.

§ Radio — SatNOGS DB

ModeDescriptionDownlinkUplink
BPSK Jillin Mysterious Pip 1.616 GHz

1 transmitter · refreshed weekly from db.satnogs.org